[[{"header":{"parameterUnit":"m.s-1","parameterCategory":2,"la1":30.2992,"la2":30.254,"lo1":-89.0895,"lo2":-89.0443,"dy":0.0025,"dx":0.0025,"nx":19,"ny":19,"refTime":"2026-05-06T09:00:00:Z","depth":"0","parameterNumber":2,"parameterNumberName":"U-component_of_CURRENTS"},"data":[0,0,0,0.3305,0.3308,0.3411,0.3411,0.3366,0.3366,0,0,0,0,0,0,0,0,0,0,0,0.324,0.3241,0.3304,0.3309,0.3411,0.3411,0.3366,0.3366,0,0,0,0,0,0,0,0,0,0,0,0.324,0.3241,0.3242,0.3309,0.3411,0.3411,0.3366,0.3322,0,0,0,0,0,0,0,0,0,0,0.3239,0.3219,0.3241,0.3242,0.331,0.3411,0.3411,0.3321,0.3324,0.3283,0,0.3317,0,0.337,0.3363,0.3362,0,0,0,0.3264,0.3217,0.3261,0.3243,0.3312,0.3411,0.3352,0.3324,0.3328,0.3287,0.3317,0.3318,0.3369,0.3362,0.3362,0.3415,0.3416,0,0,0.3258,0.3235,0.3259,0.3264,0.3359,0.3349,0.3356,0.3328,0.3326,0.3317,0.3318,0.3369,0.3362,0.3362,0.3414,0.3416,0,0,0,0.3272,0.323,0.3277,0.3263,0.3313,0.3353,0.3361,0.3326,0.3348,0.3318,0.3368,0.3362,0.3361,0.3413,0.3415,0.356,0,0,0,0.3267,0.3243,0.3275,0.3258,0.3316,0.3348,0.336,0.3348,0.3349,0.3368,0.3362,0.3361,0.3412,0.3414,0.3554,0.3589,0,0,0,0.3232,0.3239,0.3261,0.3257,0.3329,0.3351,0.3368,0.335,0.3381,0.3362,0.3361,0.3412,0.3414,0.3548,0.358,0.3667,0,0,0,0.3187,0.3245,0.326,0.3328,0.3328,0.3394,0.3369,0.3393,0.3381,0.3362,0.3413,0.3415,0.3547,0.3575,0.3661,0.3544,0.3561,0,0,0.3239,0.325,0.329,0.3309,0.3407,0.3375,0.3463,0.3437,0.3401,0.3398,0.3401,0.3556,0.3579,0.3665,0.367,0.3683,0,0,0,0.3293,0.3339,0.3361,0.3428,0.3453,0.3507,0.3496,0.3512,0.355,0.3419,0.3559,0.3569,0.3619,0.3537,0.3548,0.331,0.3425,0.3424,0.3424,0.3341,0.3383,0.346,0.3525,0.3551,0.3597,0.3642,0.3664,0.361,0.3672,0.3691,0.3856,0.3771,0.3777,0.3535,0.371,0.371,0.3711,0.3711,0.3442,0.3502,0.354,0.363,0.367,0.3723,0.38,0.3816,0.3915,0.3839,0.3882,0.3697,0.3798,0.3534,0.372,0.3719,0.3718,0.3717,0.3716,0.3479,0.3519,0.3567,0.3671,0.3754,0.3804,0.3906,0.397,0.4021,0.4085,0.3971,0.3966,0.3729,0.4111,0.4112,0.4113,0.4113,0.4114,0.4114,0.3489,0.3549,0.3614,0.3717,0.3763,0.3843,0.397,0.4041,0.4104,0.4099,0.4098,0.3743,0.3977,0.3954,0.4123,0.4121,0.412,0.4119,0.4119,0.3575,0.3566,0.3648,0.3699,0.3776,0.3747,0.3937,0.4005,0.4119,0.4123,0.3808,0.4106,0.404,0.4027,0.4004,0.4177,0.4177,0.4177,0.4177,0.3597,0.3615,0.3643,0.3659,0.3687,0.3684,0.365,0.3747,0.3757,0.3682,0.3701,0.3549,0.3557,0.3453,0.3453,0.3415,0.3434,0.3432,0.3431,0.3647,0.3641,0.3618,0.3591,0.3592,0.3529,0.3361,0.3244,0.3288,0.3381,0.3403,0.3434,0.3188,0.322,0.3035,0.3054,0.2982,0,0]},{"header":{"parameterUnit":"m.s-1","parameterCategory":2,"la1":30.2992,"la2":30.254,"lo1":-89.0895,"lo2":-89.0443,"dy":0.0025,"dx":0.0025,"nx":19,"ny":19,"refTime":"2026-05-06T09:00:00:Z","depth":"0","parameterNumber":3,"parameterNumberName":"V-component_of_CURRENTS"},"data":[0,0,0,0.0539,0.0544,0.0727,0.0728,0.0663,0.0662,0,0,0,0,0,0,0,0,0,0,0,0.0459,0.0461,0.0539,0.0545,0.0727,0.0728,0.0663,0.0662,0,0,0,0,0,0,0,0,0,0,0,0.0458,0.046,0.0463,0.0546,0.0727,0.0728,0.0663,0.0589,0,0,0,0,0,0,0,0,0,0,0.0444,0.0419,0.046,0.0463,0.0547,0.0727,0.0728,0.0588,0.0593,0.0508,0,0.057,0,0.0635,0.0655,0.0654,0,0,0,0.0501,0.0416,0.0486,0.0463,0.0549,0.0727,0.0633,0.0593,0.0599,0.0514,0.057,0.057,0.0634,0.0654,0.0654,0.068,0.0681,0,0,0.0491,0.0456,0.0484,0.0491,0.0634,0.0627,0.0639,0.0599,0.06,0.057,0.0571,0.0633,0.0653,0.0653,0.0679,0.068,0,0,0,0.0491,0.0449,0.0525,0.0491,0.0561,0.0634,0.0647,0.0601,0.0635,0.0571,0.0633,0.0653,0.0651,0.0678,0.068,0.0822,0,0,0,0.0483,0.0454,0.0521,0.0497,0.0565,0.0624,0.0649,0.0637,0.0637,0.0633,0.0653,0.065,0.0677,0.0679,0.0816,0.0894,0,0,0,0.0444,0.0449,0.0487,0.0496,0.0601,0.0628,0.0658,0.064,0.0674,0.0654,0.065,0.0676,0.0678,0.081,0.0884,0.0996,0,0,0,0.0374,0.0505,0.0487,0.0614,0.06,0.0704,0.066,0.0699,0.0689,0.0652,0.0677,0.0679,0.0808,0.0877,0.0989,0.1028,0.1064,0,0,0.0514,0.052,0.0591,0.0582,0.07,0.0673,0.077,0.0734,0.0698,0.0657,0.066,0.0818,0.0883,0.0994,0.1177,0.1208,0,0,0,0.0617,0.0659,0.069,0.0747,0.0792,0.0832,0.0802,0.0821,0.0849,0.0719,0.0831,0.0868,0.0933,0.0942,0.0968,0.0819,0.0691,0.0691,0.0691,0.0727,0.0742,0.0824,0.0842,0.0887,0.0922,0.0983,0.0997,0.0908,0.0971,0.0993,0.1189,0.12,0.122,0.1066,0.0994,0.0994,0.0995,0.0995,0.0852,0.0873,0.0877,0.0961,0.098,0.1034,0.1137,0.1146,0.126,0.1156,0.1212,0.1103,0.1256,0.1082,0.1005,0.1003,0.1002,0.1001,0.1,0.0843,0.0861,0.09,0.0978,0.1073,0.1133,0.1338,0.1385,0.1401,0.1481,0.1463,0.146,0.13,0.1494,0.1495,0.1496,0.1496,0.1497,0.1498,0.0804,0.0852,0.0923,0.1011,0.1102,0.1267,0.1467,0.1587,0.1668,0.1645,0.1644,0.1361,0.1341,0.1313,0.1511,0.1509,0.1507,0.1506,0.1505,0.0801,0.0823,0.0945,0.1041,0.1277,0.1511,0.1673,0.1886,0.1958,0.1995,0.1658,0.1734,0.1696,0.1674,0.1653,0.1928,0.1928,0.1928,0.1928,0.0785,0.0806,0.0996,0.1187,0.1423,0.1647,0.1995,0.2147,0.2009,0.188,0.1749,0.1606,0.1595,0.154,0.1521,0.1492,0.172,0.1719,0.1719,0.079,0.0861,0.1005,0.1206,0.1498,0.1812,0.2141,0.2321,0.1998,0.169,0.1543,0.1552,0.1313,0.1308,0.1188,0.1173,0.1112,0,0]}],[{"header":{"parameterUnit":"m.s-1","parameterCategory":2,"la1":30.2992,"la2":30.254,"lo1":-89.0895,"lo2":-89.0443,"dy":0.0025,"dx":0.0025,"nx":19,"ny":19,"refTime":"2026-05-06T09:00:00:Z","depth":"2","parameterNumber":2,"parameterNumberName":"U-component_of_CURRENTS"},"data":[0,0,0,0.3168,0.3172,0.3307,0.3307,0.3241,0.3241,0,0,0,0,0,0,0,0,0,0,0,0.3075,0.3076,0.3167,0.3172,0.3307,0.3307,0.3241,0.3241,0,0,0,0,0,0,0,0,0,0,0,0.3074,0.3075,0.3077,0.3173,0.3307,0.3307,0.3242,0.3187,0,0,0,0,0,0,0,0,0,0,0.308,0.3095,0.3075,0.3077,0.3175,0.3307,0.3307,0.3186,0.319,0.3128,0,0.316,0,0.3237,0.3235,0.3235,0,0,0,0.3121,0.3093,0.3099,0.3077,0.3176,0.3307,0.3232,0.319,0.3194,0.3132,0.316,0.3161,0.3236,0.3235,0.3235,0.3301,0.3302,0,0,0.3114,0.3121,0.3096,0.3102,0.3222,0.3228,0.3237,0.3194,0.3215,0.316,0.3162,0.3235,0.3234,0.3234,0.33,0.3301,0,0,0,0.3127,0.3116,0.3127,0.3101,0.3167,0.3233,0.3243,0.3216,0.3213,0.3162,0.3234,0.3234,0.3233,0.3298,0.33,0.3417,0,0,0,0.312,0.3127,0.3124,0.3132,0.317,0.3244,0.3266,0.3213,0.3215,0.3235,0.3234,0.3232,0.3297,0.3299,0.3411,0.3476,0,0,0,0.3067,0.3125,0.3135,0.3132,0.3217,0.3246,0.3241,0.3216,0.326,0.3235,0.3232,0.3296,0.3299,0.3405,0.3466,0.3515,0,0,0,0.3071,0.3096,0.3136,0.3164,0.3216,0.3246,0.3243,0.3274,0.3256,0.3234,0.3297,0.33,0.3404,0.346,0.3509,0.3281,0.3289,0,0,0.3092,0.31,0.3101,0.314,0.3188,0.3223,0.331,0.33,0.3286,0.328,0.3284,0.3413,0.3465,0.3514,0.346,0.3462,0,0,0,0.3097,0.3125,0.3123,0.3185,0.3197,0.3313,0.3334,0.3359,0.3426,0.3308,0.3444,0.3474,0.3499,0.3351,0.3354,0.3315,0.3314,0.3314,0.3314,0.3158,0.316,0.3198,0.3235,0.3277,0.3386,0.3452,0.3517,0.3461,0.3548,0.3591,0.3742,0.3587,0.3586,0.3608,0.3609,0.3609,0.361,0.361,0.32,0.3242,0.3284,0.3331,0.3433,0.3538,0.364,0.3676,0.3781,0.3732,0.375,0.351,0.3595,0.362,0.3618,0.3617,0.3616,0.3615,0.3614,0.3253,0.3289,0.3311,0.3415,0.3576,0.3681,0.3819,0.389,0.3909,0.3963,0.3766,0.376,0.3788,0.3969,0.397,0.397,0.3971,0.3971,0.3972,0.3315,0.3341,0.3406,0.3504,0.3618,0.3769,0.3942,0.3985,0.3958,0.3894,0.389,0.3863,0.3851,0.3809,0.398,0.3979,0.3977,0.3977,0.3976,0.3438,0.3413,0.3492,0.357,0.3726,0.3708,0.3913,0.3852,0.3914,0.3823,0.3822,0.3822,0.3756,0.3749,0.3705,0.3839,0.3839,0.3839,0.3839,0.3528,0.3506,0.3555,0.3596,0.3678,0.3667,0.3465,0.3292,0.335,0.3305,0.3327,0.3163,0.3181,0.3073,0.3081,0.3019,0.2976,0.2974,0.2972,0.3631,0.3602,0.3607,0.3535,0.3605,0.3499,0.3066,0.2553,0.2547,0.2933,0.3128,0.379,0.3605,0.3612,0.3486,0.3484,0.34,0,0]},{"header":{"parameterUnit":"m.s-1","parameterCategory":2,"la1":30.2992,"la2":30.254,"lo1":-89.0895,"lo2":-89.0443,"dy":0.0025,"dx":0.0025,"nx":19,"ny":19,"refTime":"2026-05-06T09:00:00:Z","depth":"2","parameterNumber":3,"parameterNumberName":"V-component_of_CURRENTS"},"data":[0,0,0,0.0345,0.035,0.0563,0.0563,0.0518,0.0517,0,0,0,0,0,0,0,0,0,0,0,0.0245,0.0246,0.0344,0.0351,0.0563,0.0563,0.0518,0.0517,0,0,0,0,0,0,0,0,0,0,0,0.0244,0.0246,0.0248,0.0352,0.0563,0.0563,0.0518,0.0428,0,0,0,0,0,0,0,0,0,0,0.0258,0.0239,0.0246,0.0248,0.0354,0.0563,0.0563,0.0427,0.0434,0.0342,0,0.0394,0,0.0475,0.051,0.0509,0,0,0,0.0316,0.0235,0.0287,0.0249,0.0356,0.0563,0.0457,0.0433,0.044,0.0349,0.0395,0.0396,0.0474,0.0509,0.0508,0.053,0.0531,0,0,0.0304,0.0276,0.0284,0.0293,0.043,0.0451,0.0465,0.044,0.0449,0.0395,0.0397,0.0473,0.0508,0.0507,0.0529,0.053,0,0,0,0.0294,0.0268,0.0327,0.0291,0.0368,0.0458,0.0473,0.0451,0.0471,0.0398,0.0473,0.0508,0.0506,0.0528,0.0529,0.0641,0,0,0,0.0285,0.0265,0.0322,0.0306,0.0371,0.0462,0.0483,0.0472,0.0474,0.0473,0.0508,0.0505,0.0527,0.0529,0.0635,0.0735,0,0,0,0.0232,0.026,0.029,0.0304,0.0416,0.0466,0.0486,0.0475,0.0519,0.0509,0.0505,0.0526,0.0528,0.0631,0.0725,0.0792,0,0,0,0.0184,0.0298,0.029,0.0402,0.0415,0.0507,0.0488,0.0542,0.0539,0.0507,0.0527,0.0529,0.0629,0.0719,0.0786,0.0788,0.0816,0,0,0.031,0.0312,0.0369,0.0369,0.0449,0.0474,0.057,0.0563,0.0543,0.0502,0.0506,0.0637,0.0724,0.0791,0.0929,0.0953,0,0,0,0.0395,0.041,0.0432,0.0475,0.0527,0.0595,0.06,0.0622,0.0665,0.0567,0.0656,0.0709,0.0746,0.0735,0.0754,0.0541,0.0541,0.054,0.054,0.0477,0.0478,0.0512,0.0511,0.0578,0.0663,0.0734,0.0768,0.0698,0.0762,0.0811,0.0963,0.0952,0.0967,0.0796,0.0797,0.0797,0.0798,0.0798,0.0523,0.0524,0.0511,0.055,0.0616,0.0715,0.0861,0.0897,0.1008,0.0939,0.0967,0.0869,0.0995,0.0807,0.0806,0.0804,0.0803,0.0803,0.0802,0.0502,0.0511,0.0501,0.0548,0.0698,0.0837,0.1088,0.1167,0.1147,0.1214,0.1174,0.1171,0.1037,0.1217,0.1217,0.1218,0.1219,0.1219,0.122,0.0505,0.0493,0.0529,0.0587,0.0736,0.0986,0.1272,0.1377,0.1412,0.1346,0.1344,0.1105,0.1091,0.1062,0.1231,0.1229,0.1228,0.1227,0.1226,0.0525,0.0527,0.061,0.0708,0.101,0.1282,0.1487,0.1644,0.1683,0.166,0.1394,0.1386,0.1356,0.1338,0.1315,0.1541,0.1541,0.1541,0.1541,0.057,0.0547,0.0726,0.0935,0.1218,0.1456,0.1721,0.1734,0.164,0.1489,0.149,0.1371,0.136,0.1322,0.1304,0.1276,0.1492,0.1491,0.1491,0.0596,0.0645,0.0804,0.0967,0.1331,0.161,0.1793,0.1716,0.147,0.1484,0.1425,0.1548,0.1371,0.1355,0.1286,0.1262,0.1213,0,0]}],[{"header":{"parameterUnit":"m.s-1","parameterCategory":2,"la1":30.2992,"la2":30.254,"lo1":-89.0895,"lo2":-89.0443,"dy":0.0025,"dx":0.0025,"nx":19,"ny":19,"refTime":"2026-05-06T09:00:00:Z","depth":"4","parameterNumber":2,"parameterNumberName":"U-component_of_CURRENTS"},"data":[0,0,0,0.0913,0.0922,0.1379,0.1381,0.1518,0.1518,0,0,0,0,0,0,0,0,0,0,0,0.0632,0.0632,0.0912,0.0923,0.1379,0.1381,0.1518,0.1518,0,0,0,0,0,0,0,0,0,0,0,0.0632,0.0632,0.0632,0.0925,0.1378,0.1381,0.1518,0.1286,0,0,0,0,0,0,0,0,0,0,0.0899,0.0871,0.0632,0.0632,0.0927,0.1378,0.1381,0.128,0.13,0.1183,0,0.1171,0,0.1388,0.1517,0.1516,0,0,0,0.0928,0.0856,0.0825,0.0632,0.0932,0.1377,0.1174,0.1295,0.1317,0.1207,0.1176,0.1189,0.139,0.1516,0.1516,0.1525,0.1525,0,0,0.0902,0.088,0.081,0.0836,0.0934,0.116,0.1188,0.1313,0.1365,0.1178,0.1198,0.1393,0.1516,0.1516,0.1524,0.1525,0,0,0,0.0827,0.0862,0.0843,0.0822,0.0965,0.1173,0.1206,0.1362,0.1308,0.1201,0.1394,0.1516,0.1516,0.1524,0.1525,0.1631,0,0,0,0.0812,0.0817,0.0829,0.0846,0.0962,0.1283,0.1251,0.1297,0.1325,0.1394,0.1516,0.1516,0.1524,0.1524,0.1628,0.1567,0,0,0,0.0632,0.0811,0.0787,0.0838,0.1034,0.1285,0.1253,0.1311,0.144,0.1516,0.1516,0.1524,0.1524,0.1625,0.1565,0.1741,0,0,0,0.0695,0.0785,0.0786,0.0952,0.1027,0.1205,0.1257,0.1429,0.149,0.1516,0.1524,0.1525,0.1624,0.1564,0.1737,0.1426,0,0,0,0.0855,0.0806,0.0892,0.0906,0.0986,0.115,0.1327,0.1406,0.1455,0.145,0.1456,0.1629,0.1565,0.174,0.1462,0,0,0,0,0.0978,0.0936,0.0974,0.1035,0.115,0.1246,0.1397,0.1455,0.1574,0.1503,0.1611,0.1563,0.1674,0.1479,0.1527,0.1527,0.1527,0.1527,0.1527,0.1029,0.1034,0.1071,0.1034,0.1133,0.1306,0.1417,0.1509,0.1546,0.1625,0.1644,0.1813,0.1607,0.1688,0.1689,0.1689,0.1689,0.169,0.169,0.1024,0.0991,0.0982,0.1014,0.1058,0.1183,0.1407,0.1519,0.1718,0.1697,0.1807,0.1586,0.17,0.1698,0.1697,0.1695,0.1695,0.1694,0.1694,0.0928,0.091,0.0919,0.0899,0.0963,0.1131,0.1323,0.1551,0.1763,0.1869,0.1775,0.1888,0.1896,0.2014,0.2015,0.2015,0.2016,0.2016,0.2016,0.0828,0.0815,0.0784,0.0775,0.0817,0.0994,0.133,0.1517,0.1781,0.1777,0.1927,0.1922,0.1912,0.1914,0.2025,0.2023,0.2022,0.2021,0.2021,0.0642,0.0695,0.0627,0.0646,0.0724,0.0846,0.119,0.1488,0.1682,0.1767,0.1784,0.1793,0.1729,0.1724,0.1716,0.1774,0.177,0.1766,0,0.054,0.0546,0.0493,0.0493,0.0572,0.0765,0.0986,0.1229,0.1495,0.1432,0.1705,0.1713,0.1721,0.1634,0.1625,0.1605,0,0,0,0.0374,0.0407,0.0339,0.0373,0.0476,0.0742,0.1036,0.1095,0.1423,0.1507,0.1677,0.1701,0.1821,0.2049,0.1974,0.1961,0.1961,0,0]},{"header":{"parameterUnit":"m.s-1","parameterCategory":2,"la1":30.2992,"la2":30.254,"lo1":-89.0895,"lo2":-89.0443,"dy":0.0025,"dx":0.0025,"nx":19,"ny":19,"refTime":"2026-05-06T09:00:00:Z","depth":"4","parameterNumber":3,"parameterNumberName":"V-component_of_CURRENTS"},"data":[0,0,0,0.0235,0.0235,0.0271,0.0271,0.0259,0.0258,0,0,0,0,0,0,0,0,0,0,0,0.0214,0.0214,0.0235,0.0235,0.0271,0.0271,0.0259,0.0258,0,0,0,0,0,0,0,0,0,0,0,0.0214,0.0214,0.0213,0.0235,0.0271,0.0271,0.0259,0.0252,0,0,0,0,0,0,0,0,0,0,0.0226,0.0226,0.0214,0.0213,0.0235,0.0271,0.0271,0.0252,0.0252,0.0219,0,0.0204,0,0.0222,0.0254,0.0254,0,0,0,0.0256,0.0226,0.0214,0.0213,0.0235,0.027,0.0261,0.0253,0.0253,0.0219,0.0204,0.0204,0.0222,0.0254,0.0254,0.0206,0.0206,0,0,0.0254,0.0247,0.0214,0.0213,0.0215,0.0259,0.0261,0.0254,0.0252,0.0204,0.0204,0.0222,0.0254,0.0253,0.0206,0.0206,0,0,0,0.0234,0.0245,0.0235,0.0212,0.0219,0.026,0.0262,0.0253,0.0242,0.0205,0.0222,0.0253,0.0252,0.0206,0.0206,0.0263,0,0,0,0.0234,0.0232,0.0234,0.0234,0.0218,0.0249,0.0262,0.0243,0.0243,0.0222,0.0253,0.0252,0.0206,0.0206,0.0262,0.0292,0,0,0,0.0218,0.0232,0.0221,0.0232,0.0237,0.0249,0.0242,0.0245,0.0252,0.0254,0.0252,0.0206,0.0206,0.0261,0.029,0.0351,0,0,0,0.023,0.0224,0.0221,0.0234,0.0236,0.0267,0.0242,0.0264,0.0269,0.0253,0.0206,0.0206,0.026,0.0288,0.0348,0.0345,0,0,0,0.0235,0.0225,0.0237,0.0235,0.0276,0.0265,0.0299,0.0285,0.0252,0.0208,0.0208,0.0262,0.0289,0.035,0.0335,0,0,0,0,0.0249,0.0262,0.0268,0.0297,0.0303,0.0326,0.0315,0.029,0.0267,0.0249,0.0243,0.0258,0.0295,0.0284,0.0205,0.0205,0.0205,0.0205,0.0205,0.0268,0.0295,0.0348,0.0377,0.0385,0.0369,0.0365,0.0326,0.0286,0.0275,0.029,0.0355,0.0342,0.027,0.027,0.027,0.027,0.0271,0.0271,0.0344,0.0399,0.0436,0.0504,0.0501,0.0526,0.0442,0.0397,0.0364,0.0315,0.0349,0.0326,0.0276,0.0275,0.0274,0.0273,0.0273,0.0273,0.0272,0.0404,0.0435,0.0493,0.0597,0.0658,0.0631,0.0633,0.0526,0.0447,0.0444,0.0457,0.0403,0.0418,0.0479,0.048,0.048,0.0481,0.0481,0.0481,0.0439,0.0495,0.0593,0.0691,0.0774,0.0812,0.0735,0.0689,0.0582,0.0525,0.0481,0.0426,0.0419,0.0429,0.0487,0.0486,0.0485,0.0485,0.0484,0.0516,0.0516,0.0643,0.0742,0.0908,0.0931,0.0892,0.0768,0.073,0.0684,0.0568,0.0562,0.0549,0.054,0.0553,0.0651,0.0651,0.0651,0,0.0537,0.0557,0.0697,0.0836,0.0951,0.098,0.0931,0.0858,0.0731,0.0716,0.0732,0.0605,0.0598,0.0586,0.0577,0.0595,0,0,0,0.0586,0.0597,0.0705,0.0821,0.0972,0.0916,0.0896,0.0841,0.0774,0.0713,0.0657,0.0656,0.0582,0.0506,0.0473,0.0464,0.0479,0,0]}]]